SEGLA ESMX-ESMQ

Flight info

Callsign SEGLA
Flight time 0h 36m
Altitude 2000
Route TILSA
Aircraft DA42/L-SBDGRY/S

Departure

Time 2026-05-06 17:37
Airport Växjö Kronoberg Airport (ESMX)

Arrival

Time 2026-05-06 18:14
Airport Kalmar Airport (ESMQ)
Time Latitude Longitude Altitude Speed Heading
2026-05-06 17:21 56.92321 14.72978 596 ft 0 kts 130°
2026-05-06 17:28 56.92317 14.72977 596 ft 3 kts 235°
2026-05-06 17:28 56.92313 14.72908 597 ft 7 kts 229°
2026-05-06 17:29 56.92256 14.72871 598 ft 11 kts 192°
2026-05-06 17:29 56.92183 14.72839 600 ft 9 kts 193°
2026-05-06 17:29 56.92113 14.72810 602 ft 11 kts 192°
2026-05-06 17:29 56.92052 14.72780 603 ft 8 kts 199°
2026-05-06 17:30 56.92011 14.72730 608 ft 7 kts 225°
2026-05-06 17:30 56.91985 14.72640 605 ft 8 kts 256°
2026-05-06 17:30 56.91982 14.72610 605 ft 0 kts 268°
2026-05-06 17:32 56.91982 14.72607 605 ft 2 kts 266°
2026-05-06 17:32 56.91982 14.72583 605 ft 1 kts 275°
2026-05-06 17:32 56.91982 14.72579 605 ft 0 kts 274°
2026-05-06 17:32 56.91983 14.72569 605 ft 5 kts 278°
2026-05-06 17:33 56.91993 14.72486 605 ft 8 kts 283°
2026-05-06 17:33 56.92037 14.72421 604 ft 10 kts 16°
2026-05-06 17:33 56.92043 14.72424 604 ft 0 kts 11°
2026-05-06 17:36 56.92101 14.72448 604 ft 36 kts 13°
2026-05-06 17:36 56.92568 14.72648 593 ft 96 kts 16°
2026-05-06 17:37 56.93282 14.72948 731 ft 110 kts 15°
2026-05-06 17:37 56.94044 14.73273 964 ft 115 kts 16°
2026-05-06 17:37 56.94679 14.74073 1180 ft 114 kts 70°
2026-05-06 17:37 56.94697 14.75490 1360 ft 117 kts 99°
2026-05-06 17:38 56.94485 14.76928 1429 ft 120 kts 130°
2026-05-06 17:38 56.93718 14.77595 1436 ft 129 kts 171°
2026-05-06 17:38 56.92800 14.77677 1436 ft 134 kts 178°
2026-05-06 17:38 56.91863 14.77565 1456 ft 136 kts 184°
2026-05-06 17:39 56.90929 14.77361 1535 ft 134 kts 186°
2026-05-06 17:39 56.90005 14.77149 1580 ft 135 kts 185°
2026-05-06 17:39 56.89057 14.76953 1599 ft 138 kts 182°
2026-05-06 17:39 56.88095 14.76957 1615 ft 139 kts 172°
2026-05-06 17:40 56.87167 14.77404 1656 ft 138 kts 156°
2026-05-06 17:40 56.86343 14.78346 1589 ft 142 kts 139°
2026-05-06 17:40 56.85690 14.79712 1540 ft 143 kts 127°
2026-05-06 17:40 56.85123 14.81215 1498 ft 143 kts 121°
2026-05-06 17:41 56.84608 14.82746 1526 ft 140 kts 121°
2026-05-06 17:41 56.84085 14.84241 1494 ft 141 kts 121°
2026-05-06 17:41 56.83561 14.85771 1460 ft 141 kts 121°
2026-05-06 17:41 56.83074 14.87312 1481 ft 140 kts 117°
2026-05-06 17:42 56.82683 14.88970 1439 ft 143 kts 110°
2026-05-06 17:42 56.82423 14.90686 1477 ft 137 kts 102°
2026-05-06 17:42 56.82261 14.92397 1518 ft 137 kts 99°
2026-05-06 17:42 56.82151 14.94128 1509 ft 138 kts 96°
2026-05-06 17:43 56.82081 14.95877 1559 ft 137 kts 94°
2026-05-06 17:43 56.82019 14.97613 1614 ft 138 kts 96°
2026-05-06 17:43 56.82043 14.99396 1589 ft 146 kts 76°
2026-05-06 17:43 56.82652 15.00870 1611 ft 151 kts 38°
2026-05-06 17:44 56.83572 15.01805 1645 ft 151 kts 31°
2026-05-06 17:44 56.84352 15.02985 1641 ft 146 kts 59°
2026-05-06 17:44 56.85101 15.04152 1662 ft 151 kts 12°
2026-05-06 17:44 56.86009 15.03270 1631 ft 160 kts 299°
2026-05-06 17:45 56.86016 15.01317 1574 ft 159 kts 239°
2026-05-06 17:45 56.85169 15.00214 1605 ft 150 kts 186°
2026-05-06 17:45 56.84142 15.00313 1629 ft 145 kts 165°
2026-05-06 17:45 56.83153 15.00749 1616 ft 147 kts 163°
2026-05-06 17:46 56.82163 15.01220 1626 ft 148 kts 162°
2026-05-06 17:46 56.81175 15.01754 1620 ft 148 kts 160°
2026-05-06 17:46 56.80196 15.02318 1620 ft 147 kts 160°
2026-05-06 17:46 56.79236 15.02879 1618 ft 147 kts 159°
2026-05-06 17:47 56.78379 15.03838 1620 ft 145 kts 135°
2026-05-06 17:47 56.77666 15.05176 1620 ft 145 kts 131°
2026-05-06 17:47 56.77139 15.06720 1615 ft 143 kts 111°
2026-05-06 17:47 56.76846 15.08426 1619 ft 144 kts 106°
2026-05-06 17:48 56.76593 15.10193 1624 ft 144 kts 101°
2026-05-06 17:48 56.76429 15.11988 1623 ft 143 kts 99°
2026-05-06 17:48 56.76278 15.13794 1626 ft 144 kts 98°
2026-05-06 17:48 56.76124 15.15591 1621 ft 143 kts 99°
2026-05-06 17:49 56.75980 15.17366 1627 ft 142 kts 99°
2026-05-06 17:49 56.75835 15.19148 1626 ft 142 kts 99°
2026-05-06 17:49 56.75687 15.20957 1625 ft 143 kts 99°
2026-05-06 17:49 56.75443 15.22706 1625 ft 144 kts 109°
2026-05-06 17:50 56.75094 15.24381 1628 ft 143 kts 111°
2026-05-06 17:50 56.74734 15.26072 1633 ft 141 kts 111°
2026-05-06 17:50 56.74451 15.27778 1628 ft 141 kts 96°
2026-05-06 17:50 56.74617 15.29497 1631 ft 141 kts 70°
2026-05-06 17:51 56.75037 15.31100 1626 ft 140 kts 66°
2026-05-06 17:51 56.75469 15.32684 1631 ft 140 kts 66°
2026-05-06 17:51 56.75909 15.34288 1634 ft 143 kts 64°
2026-05-06 17:51 56.76549 15.35676 1631 ft 144 kts 45°
2026-05-06 17:52 56.77351 15.36779 1643 ft 145 kts 37°
2026-05-06 17:52 56.77922 15.37461 1639 ft 145 kts 36°
2026-05-06 17:52 56.78761 15.38459 1639 ft 144 kts 36°
2026-05-06 17:52 56.79866 15.39778 1640 ft 143 kts 36°
2026-05-06 17:53 56.80430 15.40445 1633 ft 143 kts 36°
2026-05-06 17:53 56.81268 15.41431 1637 ft 143 kts 36°
2026-05-06 17:53 56.82097 15.42411 1634 ft 145 kts 35°
2026-05-06 17:53 56.82979 15.43312 1629 ft 146 kts 27°
2026-05-06 17:54 56.83971 15.43735 1636 ft 147 kts 12°
2026-05-06 17:54 56.84984 15.43934 1629 ft 146 kts
2026-05-06 17:54 56.85999 15.43976 1636 ft 147 kts
2026-05-06 17:54 56.87022 15.43993 1633 ft 147 kts
2026-05-06 17:55 56.88045 15.44027 1635 ft 148 kts
2026-05-06 17:55 56.89072 15.44065 1632 ft 147 kts
2026-05-06 17:55 56.90094 15.44121 1635 ft 147 kts
2026-05-06 17:55 56.91121 15.44169 1631 ft 148 kts
2026-05-06 17:56 56.92057 15.44727 1637 ft 140 kts 44°
2026-05-06 17:56 56.92512 15.46247 1640 ft 138 kts 74°
2026-05-06 17:56 56.92625 15.47979 1642 ft 138 kts 93°
2026-05-06 17:56 56.92539 15.49738 1640 ft 138 kts 96°
2026-05-06 17:57 56.92431 15.51482 1636 ft 138 kts 96°
2026-05-06 17:57 56.92324 15.53234 1642 ft 139 kts 96°
2026-05-06 17:57 56.92219 15.55013 1641 ft 142 kts 96°
2026-05-06 17:57 56.91945 15.56748 1637 ft 143 kts 111°
2026-05-06 17:58 56.91527 15.58400 1643 ft 144 kts 115°
2026-05-06 17:58 56.91083 15.59930 1945 ft 126 kts 116°
2026-05-06 17:58 56.90659 15.61351 2036 ft 132 kts 116°
2026-05-06 17:58 56.90214 15.62870 2034 ft 138 kts 116°
2026-05-06 17:59 56.89646 15.64299 2030 ft 141 kts 133°
2026-05-06 17:59 56.88891 15.65471 2032 ft 143 kts 138°
2026-05-06 17:59 56.88114 15.66613 2033 ft 143 kts 138°
2026-05-06 17:59 56.87336 15.67755 2034 ft 143 kts 138°
2026-05-06 18:00 56.86559 15.68899 2033 ft 144 kts 138°
2026-05-06 18:00 56.85779 15.70038 2033 ft 144 kts 138°
2026-05-06 18:00 56.84999 15.71181 2033 ft 144 kts 138°
2026-05-06 18:00 56.84217 15.72324 2004 ft 145 kts 138°
2026-05-06 18:01 56.83431 15.73479 2005 ft 145 kts 138°
2026-05-06 18:01 56.82645 15.74626 2006 ft 145 kts 138°
2026-05-06 18:01 56.81861 15.75773 2002 ft 144 kts 138°
2026-05-06 18:01 56.81077 15.76918 2001 ft 144 kts 138°
2026-05-06 18:02 56.80292 15.78055 2003 ft 144 kts 138°
2026-05-06 18:02 56.79498 15.79184 2003 ft 145 kts 138°
2026-05-06 18:02 56.78701 15.80317 2003 ft 145 kts 138°
2026-05-06 18:02 56.77904 15.81457 2001 ft 146 kts 139°
2026-05-06 18:03 56.76939 15.82027 1994 ft 154 kts 180°
2026-05-06 18:03 56.75974 15.81190 1989 ft 160 kts 224°
2026-05-06 18:03 56.75545 15.79346 1997 ft 162 kts 268°
2026-05-06 18:03 56.75881 15.77444 1999 ft 159 kts 311°
2026-05-06 18:04 56.76795 15.76471 2004 ft 152 kts 356°
2026-05-06 18:04 56.77769 15.76893 2006 ft 144 kts 39°
2026-05-06 18:04 56.78268 15.78407 2006 ft 142 kts 83°
2026-05-06 18:04 56.78177 15.80164 2007 ft 142 kts 103°
2026-05-06 18:05 56.77899 15.81883 2005 ft 141 kts 105°
2026-05-06 18:05 56.77597 15.83590 2006 ft 142 kts 106°
2026-05-06 18:05 56.77294 15.85313 2005 ft 143 kts 106°
2026-05-06 18:05 56.76996 15.87036 1979 ft 140 kts 106°
2026-05-06 18:06 56.76677 15.88757 1724 ft 146 kts 108°
2026-05-06 18:06 56.76307 15.90479 1598 ft 145 kts 114°
2026-05-06 18:06 56.75823 15.92038 1598 ft 138 kts 119°
2026-05-06 18:06 56.75311 15.93487 1600 ft 134 kts 121°
2026-05-06 18:07 56.74789 15.94871 1600 ft 131 kts 121°
2026-05-06 18:07 56.74259 15.96194 1598 ft 129 kts 123°
2026-05-06 18:07 56.73692 15.97442 1595 ft 127 kts 125°
2026-05-06 18:07 56.73128 15.98680 1582 ft 128 kts 125°
2026-05-06 18:08 56.72554 15.99961 1495 ft 133 kts 125°
2026-05-06 18:08 56.71980 16.01253 1493 ft 130 kts 124°
2026-05-06 18:08 56.71451 16.02567 1493 ft 128 kts 121°
2026-05-06 18:08 56.70944 16.03890 1490 ft 127 kts 121°
2026-05-06 18:09 56.70440 16.05205 1492 ft 126 kts 121°
2026-05-06 18:09 56.69929 16.06502 1491 ft 126 kts 121°
2026-05-06 18:09 56.69416 16.07785 1491 ft 125 kts 121°
2026-05-06 18:09 56.68905 16.09062 1491 ft 125 kts 121°
2026-05-06 18:10 56.68402 16.10320 1489 ft 125 kts 121°
2026-05-06 18:10 56.67957 16.11678 1484 ft 122 kts 108°
2026-05-06 18:10 56.67792 16.13169 1482 ft 120 kts 91°
2026-05-06 18:10 56.67827 16.14678 1453 ft 119 kts 81°
2026-05-06 18:11 56.68061 16.16091 1397 ft 116 kts 63°
2026-05-06 18:11 56.68466 16.17345 1362 ft 115 kts 58°
2026-05-06 18:11 56.68917 16.18572 1283 ft 118 kts 56°
2026-05-06 18:11 56.69387 16.19780 1203 ft 119 kts 56°
2026-05-06 18:12 56.69898 16.20942 1117 ft 116 kts 50°
2026-05-06 18:12 56.70453 16.22010 981 ft 116 kts 47°
2026-05-06 18:12 56.70985 16.22989 913 ft 104 kts 50°
2026-05-06 18:12 56.71367 16.24054 793 ft 99 kts 69°
2026-05-06 18:13 56.71462 16.25256 637 ft 97 kts 98°
2026-05-06 18:13 56.71097 16.26232 462 ft 93 kts 137°
2026-05-06 18:13 56.70555 16.26834 282 ft 89 kts 149°
2026-05-06 18:13 56.70013 16.27350 146 ft 86 kts 147°
2026-05-06 18:14 56.69486 16.27854 41 ft 85 kts 146°
2026-05-06 18:14 56.69086 16.28255 28 ft 47 kts 153°
2026-05-06 18:14 56.68851 16.28487 28 ft 31 kts 156°
2026-05-06 18:14 56.68677 16.28641 25 ft 27 kts 154°
2026-05-06 18:15 56.68532 16.28721 25 ft 18 kts 207°
2026-05-06 18:15 56.68437 16.28531 25 ft 20 kts 228°
2026-05-06 18:15 56.68348 16.28349 27 ft 18 kts 229°
2026-05-06 18:15 56.68266 16.28215 28 ft 15 kts 186°
2026-05-06 18:16 56.68160 16.28211 27 ft 15 kts 181°
2026-05-06 18:16 56.68062 16.28206 27 ft 11 kts 180°
2026-05-06 18:16 56.67991 16.28245 27 ft 11 kts 133°
2026-05-06 18:16 56.67943 16.28347 27 ft 10 kts 130°
2026-05-06 18:17 56.67900 16.28440 27 ft 9 kts 124°
2026-05-06 18:17 56.67866 16.28477 27 ft 6 kts 228°
2026-05-06 18:17 56.67865 16.28475 27 ft 0 kts 226°